Regional Weather Roundup
Issued by NWS

Home | Current Version | Previous Version | Text Only | Print | Product List | Glossary Off
Versions: 1 2 3 4 5 6 7 8 9 10 11 12 13 14 15 16 17 18 19 20 21 22 23 24 25 26 27 28 29 30 31 32 33 34 35 36 37 38 39 40 41 42 43 44 45 46 47 48 49 50

225
ASUS43 KMKX 060621
RWRWI

WISCONSIN REGIONAL WEATHER ROUNDUP
NATIONAL WEATHER SERVICE MILWAUKEE/SULLIVAN WI
1200 AM CST SAT FEB 06 2016

NOTE: "FAIR" INDICATES FEW OR NO CLOUDS BELOW 12,000 FEET WITH NO
SIGNIFICANT WEATHER AND/OR OBSTRUCTIONS TO VISIBILITY.

WIZ001-002-006>008-014>016-023>028-060700-
NORTHWEST WISCONSIN

CITY           SKY/WX    TMP DP  RH WIND       PRES   REMARKS
SUPERIOR ARPT  CLOUDY    25  17  71 SW10      30.11S WCI  15
6HR MIN TEMP:  25; 6HR MAX TEMP:  28;

ASHLAND        CLOUDY    24  16  71 SW8       30.11F WCI  15
6HR MIN TEMP:  24; 6HR MAX TEMP:  27;

HAYWARD        CLOUDY    22  15  75 SW7       30.11F WCI  13
6HR MIN TEMP:  21; 6HR MAX TEMP:  23;

SIREN          CLOUDY    25  21  84 SW7       30.13F WCI  17
6HR MIN TEMP:  24; 6HR MAX TEMP:  25;

CUMBERLAND     CLOUDY    23  19  86 SW9       30.12F WCI  13
RICE LAKE      CLOUDY    24  20  87 S6        30.15F WCI  16
6HR MIN TEMP:  17; 6HR MAX TEMP:  24;

CHETEK         CLOUDY    23  19  85 SW7       30.15F WCI  15
6HR MIN TEMP:  17; 6HR MAX TEMP:  23;

LADYSMITH      CLOUDY    22  17  81 SW7       30.15F WCI  14
6HR MIN TEMP:  18; 6HR MAX TEMP:  22;

EAU CLAIRE     CLOUDY    23  16  74 SW12      30.17F WCI  12
6HR MIN TEMP:  21; 6HR MAX TEMP:  24; 6HR PCP: TRACE;

MENOMONIE      CLOUDY    25  19  78 S9        30.18F WCI  15
6HR MIN TEMP:  21; 6HR MAX TEMP:  25;

NEW RICHMOND   CLOUDY    24  20  86 SW9       30.15F WCI  14
6HR MIN TEMP:  23; 6HR MAX TEMP:  24;

OSCEOLA        CLOUDY    25  21  87 S3        30.18S
6HR MIN TEMP:  25; 6HR MAX TEMP:  26;

$$

WIZ003>005-009-010-017-018-060700-
NORTH CENTRAL WISCONSIN

CITY           SKY/WX    TMP DP  RH WIND       PRES   REMARKS
MANITOWISH WTR FLURRIES  19  16  85 SW9       30.07F WCI   9
6HR MIN TEMP:  19; 6HR MAX TEMP:  23;

ARBOR VITAE    LGT SNOW  22  17  83 SW7       30.08F WCI  13
6HR MIN TEMP:  22; 6HR MAX TEMP:  25;

WOODRUFF       LGT SNOW  22  17  83 SW7       30.08F WCI  13
6HR MIN TEMP:  22; 6HR MAX TEMP:  25;

RHINELANDER    LGT SNOW  20  14  77 SW12      30.09F WCI   8
6HR MIN TEMP:  20; 6HR MAX TEMP:  22; 6HR PCP: TRACE;

EAGLE RIVER    LGT SNOW  20  14  76 SW13      30.07S WCI   8
LAND O LAKES   LGT SNOW  21  16  83 SW7       30.07F WCI  12
6HR MIN TEMP:  21; 6HR MAX TEMP:  25;

PHILLIPS       FLURRIES  20  16  84 SW7       30.10F WCI  11
6HR MIN TEMP:  20; 6HR MAX TEMP:  21;

TOMAHAWK       LGT SNOW  21  15  79 SW3       30.12F
6HR MIN TEMP:  18; 6HR MAX TEMP:  21;

MEDFORD        FLURRIES  20  16  82 SW8       30.13F WCI  10
6HR MIN TEMP:  15; 6HR MAX TEMP:  20;

MERRILL        FLURRIES  21  17  82 SW8       30.15F WCI  12
6HR MIN TEMP:  14; 6HR MAX TEMP:  21;

$$

WIZ029-030-035-036-043>047-060700-
CENTRAL WISCONSIN

CITY           SKY/WX    TMP DP  RH WIND       PRES   REMARKS
WAUSAU         FLURRIES  23  15  71 SW9       30.14F WCI  13
6HR MIN TEMP:  19; 6HR MAX TEMP:  24; 6HR PCP: TRACE;

MOSINEE        FLURRIES  21  18  86 SW9       30.18F WCI  11
MARSHFIELD     CLOUDY    23  14  68 SW12      30.16F WCI  12
6HR MIN TEMP:  20; 6HR MAX TEMP:  23; 6HR PCP: TRACE;

STEVENS POINT  FLURRIES  22  15  76 SW8       30.20F WCI  12
6HR MIN TEMP:  16; 6HR MAX TEMP:  22;

WAUPACA        CLOUDY    26  19  72 SW6       30.23R WCI  20
6HR MIN TEMP:  21; 6HR MAX TEMP:  26;

WAUTOMA        CLOUDY    24  17  74 SW7       30.24S WCI  16
6HR MIN TEMP:  24; 6HR MAX TEMP:  26;

WISC RAPIDS    CLOUDY    23  15  71 SW8       30.22F WCI  14
6HR MIN TEMP:  19; 6HR MAX TEMP:  23; 6HR PCP: TRACE;

CAMP DOUGLAS   CLOUDY    25  23  90 SW7       30.21F WCI  17
6HR MIN TEMP:  18; 6HR MAX TEMP:  25;

$$

WIZ011>013-019>022-031-037>040-048>050-060700-
NORTHEAST WISCONSIN

CITY           SKY/WX    TMP DP  RH WIND       PRES   REMARKS
ANTIGO         FLURRIES  20  15  79 SW14      30.13F WCI   7
6HR MIN TEMP:   9; 6HR MAX TEMP:  21;

SHAWANO        CLOUDY    25  18  74 SW7       30.20F WCI  18
6HR MIN TEMP:  23; 6HR MAX TEMP:  27;

OCONTO         CLOUDY    22  18  81 SW6       30.19F WCI  15
6HR MIN TEMP:  12; 6HR MAX TEMP:  23;

STURGEON BAY   CLOUDY    25  16  68 SW14      30.20F WCI  13
6HR MIN TEMP:  18; 6HR MAX TEMP:  25;

GREEN BAY      CLOUDY    23  17  78 S9        30.21F WCI  13
6HR MIN TEMP:  18; 6HR MAX TEMP:  23;

MANITOWOC      CLOUDY    26  18  71 W8        30.23F WCI  18
6HR MIN TEMP:  23; 6HR MAX TEMP:  26;

APPLETON       CLOUDY    25  18  74 SW10      30.20F WCI  15
CLINTONVILLE   CLOUDY    25  18  74 SW8       30.21F WCI  16
OSHKOSH        CLOUDY    24  15  68 SW6       30.23S WCI  17
6HR MIN TEMP:  21; 6HR MAX TEMP:  24;

$$

WIZ032>034-041-042-053>061-060700-
SOUTHWEST WISCONSIN

CITY           SKY/WX    TMP DP  RH WIND       PRES   REMARKS
LA CROSSE      CLOUDY    25  18  74 S6        30.24S WCI  18
6HR MIN TEMP:  24; 6HR MAX TEMP:  25;

SPARTA         CLOUDY    25  19  80 CALM      30.24F
6HR MIN TEMP:  17; 6HR MAX TEMP:  25;

VIROQUA        CLOUDY    24  20  87 SW9       30.21F WCI  14
6HR MIN TEMP:  21; 6HR MAX TEMP:  24;

BOSCOBEL       CLOUDY    27  22  81 SW5       30.27F WCI  22
6HR MIN TEMP:  24; 6HR MAX TEMP:  27;

PRAIRIE DU CHI CLOUDY    28  19  71 SW5       30.27F WCI  22
6HR MIN TEMP:  26; 6HR MAX TEMP:  28;

PLATTEVILLE    CLOUDY    26  24  89 SW7       30.26F WCI  19
6HR MIN TEMP:  25; 6HR MAX TEMP:  26;

$$

WIZ056-057-062-063-064-067-068-060700-
SOUTH CENTRAL WISCONSIN

CITY           SKY/WX    TMP DP  RH WIND       PRES   REMARKS
REEDSBURG      CLOUDY    25  19  77 SW10      30.25S WCI  15
6HR MIN TEMP:  23; 6HR MAX TEMP:  25;

BARABOO/DELLS  CLOUDY    25  18  74 SW10      30.24S WCI  15
6HR MIN TEMP:  22; 6HR MAX TEMP:  26;

LONE ROCK      CLOUDY    27  19  72 SW7       30.28S WCI  19
6HR MIN TEMP:  21; 6HR MAX TEMP:  27;

MINERAL POINT  CLOUDY    28  23  80 SW6       30.25S WCI  22
MADISON        CLOUDY    27  18  69 SW7       30.26S WCI  19
6HR MIN TEMP:  26; 6HR MAX TEMP:  27;

MIDDLETON      CLOUDY    28  20  73 SW6       30.26R WCI  22
6HR MIN TEMP:  27; 6HR MAX TEMP:  28;

WATERTOWN      CLOUDY    27  22  81 SW6       30.25F WCI  20
6HR MIN TEMP:  26; 6HR MAX TEMP:  27;

MONROE         CLOUDY    28  23  80 S8        30.25F WCI  20
JANESVILLE     CLOUDY    30  25  80 SW6       30.28F WCI  24
$$

WIZ051-052-058>065-066-070>072-060700-
SOUTHEAST WISCONSIN

CITY           SKY/WX    TMP DP  RH WIND       PRES   REMARKS
MILWAUKEE      CLOUDY    29  19  66 SW9       30.27F WCI  20
6HR MIN TEMP:  28; 6HR MAX TEMP:  30;

WAUKESHA       CLOUDY    27  19  74 SW8       30.27S WCI  18
MILWAUKEE/TIMM CLOUDY    28  19  69 SW7       30.27F WCI  21
RACINE         CLOUDY    28  19  69 W7        30.29F WCI  21
6HR MIN TEMP:  27; 6HR MAX TEMP:  30;

BURLINGTON     CLOUDY    26  21  80 SW6       30.28F WCI  19
6HR MIN TEMP:  24; 6HR MAX TEMP:  27;

KENOSHA        CLOUDY    27  20  75 SW7       30.29S WCI  19
6HR MIN TEMP:  25; 6HR MAX TEMP:  29;

FOND DU LAC    CLOUDY    25  17  72 SW8       30.24S WCI  16
6HR MIN TEMP:  21; 6HR MAX TEMP:  25;

SHEBOYGAN      CLOUDY    26  16  65 SW9       30.23F WCI  17
6HR MIN TEMP:  22; 6HR MAX TEMP:  26;

WEST BEND      CLOUDY    28  19  69 CALM      30.24F
JUNEAU         CLOUDY    24  18  80 S8        30.25S WCI  15
6HR MIN TEMP:  22; 6HR MAX TEMP:  25;

$$

LSZ147-162-060700-
LAKE SUPERIOR

STATION/POSITION TIME  TEMP    WIND        PRES    WAVE
                       AIR SEA DIR/SP/G            HT/PER
                 (UTC) (F)     (DEG/KT/KT) (MB)    (FT/S)
DEVILS ISLAND    0600   28     240/ 20/ 25 1019.1F
SAXON HARBOR     0540   25                 1019.0F
$$

LMZ867-665-643>646-060700-
LAKE MICHIGAN

STATION/POSITION TIME  TEMP    WIND        PRES    WAVE
                       AIR SEA DIR/SP/G            HT/PER
                 (UTC) (F)     (DEG/KT/KT) (MB)    (FT/S)
CHAMBERS ISLAND  0500C1F1C2F2C3F3C4F4C5F5C6F6C7F7C8M1C9M2Ca!



USA.gov is the U.S. government's official web portal to all federal, state and local government web resources and services.